Weather History for Brownsville, TX

Change the Weather History Date:

Saturday, March 17, 2012

  Actual Average Record
Temperature  
Mean Temperature 76 °F 69 °F  
Max Temperature 82 °F 79 °F 90 °F (1982)
Min Temperature 70 °F 60 °F 33 °F (1913)
Degree Days  
Heating Degree Days 0 1  
Month to date heating degree days 22 30  
Since 1 July heating degree days 352 533  
Cooling Degree Days 11 6  
Month to date cooling degree days 124 81  
Year to date cooling degree days 364 222  
Growing Degree Days 24 (Base 50)    
Moisture  
Dew Point 69 °F    
Average Humidity 84    
Maximum Humidity 100    
Minimum Humidity 67    
Precipitation  
Precipitation 0.00 in 0.03 in 0.95 in (1917)
Month to date precipitation 0.16 0.60  
Year to date precipitation 4.74 2.95  
Sea Level Pressure  
Sea Level Pressure 29.98 in    
Wind  
Wind Speed 16 mph (SE)    
Max Wind Speed 26 mph    
Max Gust Speed 35 mph    
Visibility 10 miles    
Events      
T = Trace of Precipitation, MM = Missing Value Source: NWS Daily Summary

Daily Weather History Graph

Daily Weather History Graph

Search for Another Location

Airport:

Trip Planner

Search our weather history database for the weather conditions in past years. The results will help you decide how hot, cold, wet, or windy it might be!

Date:

Astronomy

Mar. 17, 2012 Rise Set
Actual Time 7:36 AM CDT 7:39 PM CDT
Civil Twilight 7:13 AM CDT 8:02 PM CDT
Nautical Twilight 6:46 AM CDT 8:29 PM CDT
Astronomical Twilight 6:19 AM CDT 8:56 PM CDT
Moon 4:12 AM CDT (3/17) 3:28 PM CDT (3/17)
Length of Visible Light 12h 49m
Length of Day
12h 03m
Waning Crescent, 23% of the Moon is Illuminated
Mar 17
Waning Crescent
Mar 22
New
Mar 30
First Quarter
Apr 6
Full
Apr 13
Last Quarter

Hourly Weather History & Observations

Time (CDT) Temp. Heat Index Dew Point Humidity Pressure Visibility Wind Dir Wind Speed Gust Speed Precip Events Conditions
12:53 AM 71.1 °F - 69.1 °F 93% 30.04 in 10.0 mi SE 10.4 mph - N/A   Clear
1:53 AM 70.0 °F - 69.1 °F 97% 30.03 in 10.0 mi SE 10.4 mph - N/A   Partly Cloudy
2:21 AM 69.8 °F - 69.8 °F 100% 30.01 in 10.0 mi SE 11.5 mph - N/A   Mostly Cloudy
2:53 AM 71.1 °F - 69.1 °F 93% 30.01 in 10.0 mi SSE 9.2 mph - N/A   Overcast
3:04 AM 71.6 °F - 69.8 °F 94% 30.01 in 10.0 mi SSE 9.2 mph - N/A   Overcast
3:38 AM 71.6 °F - 69.8 °F 94% 30.00 in 10.0 mi SE 8.1 mph - N/A   Overcast
3:53 AM 71.1 °F - 69.1 °F 93% 29.99 in 10.0 mi SE 9.2 mph - N/A   Overcast
4:03 AM 71.6 °F - 69.8 °F 94% 29.99 in 10.0 mi SE 9.2 mph - N/A   Overcast
4:53 AM 71.1 °F - 69.1 °F 93% 29.98 in 10.0 mi SE 11.5 mph - N/A   Mostly Cloudy
5:04 AM 71.6 °F - 69.8 °F 94% 29.97 in 10.0 mi SE 10.4 mph 18.4 mph N/A   Scattered Clouds
5:53 AM 71.1 °F - 69.1 °F 93% 29.97 in 10.0 mi SE 10.4 mph - N/A   Clear
6:53 AM 71.1 °F - 69.1 °F 93% 29.97 in 10.0 mi SE 11.5 mph - N/A   Clear
7:53 AM 71.1 °F - 69.1 °F 93% 29.99 in 10.0 mi SE 11.5 mph - N/A   Partly Cloudy
8:53 AM 73.0 °F - 70.0 °F 90% 29.99 in 10.0 mi SE 13.8 mph - N/A   Clear
9:53 AM 75.9 °F - 70.0 °F 82% 30.01 in 10.0 mi SE 20.7 mph 26.5 mph N/A   Scattered Clouds
10:17 AM 75.2 °F - 69.8 °F 83% 30.02 in 10.0 mi SE 18.4 mph 29.9 mph N/A   Mostly Cloudy
10:53 AM 78.1 °F - 69.1 °F 74% 30.02 in 10.0 mi SE 24.2 mph 29.9 mph N/A   Mostly Cloudy
11:53 AM 79.0 °F - 68.0 °F 69% 30.02 in 10.0 mi SSE 20.7 mph - N/A   Mostly Cloudy
12:53 PM 79.0 °F - 69.1 °F 72% 30.01 in 10.0 mi SSE 24.2 mph 29.9 mph N/A   Overcast
1:35 PM 78.8 °F - 69.8 °F 74% 30.00 in 10.0 mi SSE 24.2 mph 29.9 mph N/A   Overcast
1:44 PM 78.8 °F - 68.0 °F 69% 29.99 in 10.0 mi SE 24.2 mph 31.1 mph N/A   Overcast
1:53 PM 79.0 °F - 69.1 °F 72% 29.99 in 10.0 mi SE 25.3 mph 29.9 mph N/A   Overcast
2:53 PM 79.0 °F - 68.0 °F 69% 29.97 in 10.0 mi SSE 21.9 mph 31.1 mph N/A   Overcast
3:19 PM 80.6 °F 83.9 °F 69.8 °F 70% 29.96 in 10.0 mi SSE 19.6 mph 29.9 mph N/A   Mostly Cloudy
3:30 PM 80.6 °F 83.2 °F 68.0 °F 65% 29.96 in 10.0 mi SE 24.2 mph 32.2 mph N/A   Mostly Cloudy
3:53 PM 80.1 °F 82.7 °F 68.0 °F 67% 29.95 in 10.0 mi SE 23.0 mph 31.1 mph N/A   Mostly Cloudy
4:53 PM 78.1 °F - 68.0 °F 71% 29.93 in 10.0 mi SSE 24.2 mph 29.9 mph N/A   Mostly Cloudy
5:00 PM 78.8 °F - 68.0 °F 69% 29.93 in 10.0 mi SE 20.7 mph 29.9 mph N/A   Mostly Cloudy
5:13 PM 78.8 °F - 66.2 °F 65% 29.94 in 10.0 mi SSE 23.0 mph 28.8 mph N/A   Mostly Cloudy
5:29 PM 80.6 °F 83.2 °F 68.0 °F 65% 29.93 in 10.0 mi SE 21.9 mph 28.8 mph N/A   Scattered Clouds
5:37 PM 78.8 °F - 68.0 °F 69% 29.92 in 10.0 mi SE 21.9 mph 28.8 mph N/A   Mostly Cloudy
5:53 PM 78.1 °F - 68.0 °F 71% 29.93 in 10.0 mi SE 20.7 mph 29.9 mph N/A   Scattered Clouds
6:00 PM 77.0 °F - 68.0 °F 74% 29.93 in 10.0 mi SE 19.6 mph 28.8 mph N/A   Mostly Cloudy
6:07 PM 77.0 °F - 66.2 °F 69% 29.93 in 10.0 mi SE 21.9 mph 28.8 mph N/A   Scattered Clouds
6:53 PM 75.9 °F - 64.9 °F 69% 29.94 in 10.0 mi SSE 17.3 mph 24.2 mph N/A   Clear
7:53 PM 73.0 °F - 66.9 °F 81% 29.94 in 10.0 mi SE 15.0 mph - N/A   Clear
8:53 PM 72.0 °F - 68.0 °F 87% 29.97 in 10.0 mi SE 10.4 mph - N/A   Clear
9:53 PM 71.1 °F - 69.1 °F 93% 29.98 in 10.0 mi SE 8.1 mph - N/A   Clear
10:53 PM 71.1 °F - 69.1 °F 93% 30.00 in 10.0 mi SE 9.2 mph - N/A   Partly Cloudy
11:15 PM 71.6 °F - 69.8 °F 94% 30.01 in 10.0 mi SE 9.2 mph - N/A   Mostly Cloudy
11:44 PM 71.6 °F - 69.8 °F 94% 30.00 in 10.0 mi SE 9.2 mph - N/A   Scattered Clouds
11:53 PM 71.1 °F - 69.1 °F 93% 30.00 in 10.0 mi SE 8.1 mph - N/A   Partly Cloudy